[[{"header":{"parameterUnit":"m.s-1","parameterCategory":1,"la1":30.2991,"la2":30.254,"lo1":-89.0895,"lo2":-89.0444,"dy":0.0017,"dx":0.0017,"nx":28,"ny":28,"refTime":"2025-04-20T03:00:00:Z","depth":0,"parameterNumber":2,"parameterNumberName":"U-component_of_WINDS"},"data":[0,0,0,0,0,0,0,0,0,0,0,0,0,0,0,0,0,0,0,0,0,0,0,0,0,0,0,0,0,0,0,0,0,0,0,0,0,0,0,0,0,0,0,0,0,0,0,0,0,0,0,0,0,0,0,0,0,0,-3.6521,-3.6522,0,-3.6576,-3.6576,-3.6577,-3.6518,-3.6516,-3.6514,-3.6512,-3.6569,-3.6572,-3.6576,0,0,0,0,0,0,0,0,0,0,0,0,0,-3.6368,-3.6371,-3.6521,-3.6522,-3.6523,-3.6576,-3.6576,-3.6577,-3.6519,-3.6516,-3.6513,-3.6511,-3.6568,-3.6572,-3.6576,0,0,0,0,0,0,0,0,0,0,0,0,0,-3.643,-3.6372,-3.6521,-3.65,-3.6498,-3.6576,-3.6576,-3.6577,-3.6519,-3.6516,-3.6513,-3.6509,-3.6566,-3.6572,-3.6577,-3.6678,0,0,-3.6593,-3.6596,0,0,0,0,0,0,0,0,-3.6427,-3.6436,-3.6502,-3.6501,-3.65,-3.6537,-3.6543,-3.6611,-3.652,-3.6511,-3.6512,-3.6508,-3.6561,-3.6567,-3.6584,-3.6681,-3.6683,-3.6594,-3.6597,-3.66,-3.6601,0,0,0,0,0,0,0,-3.6422,-3.6433,-3.6543,-3.6503,-3.6502,-3.6488,-3.6493,-3.6556,-3.6555,-3.6512,-3.6508,-3.6515,-3.656,-3.6579,-3.6585,-3.6684,-3.6594,-3.6599,-3.6602,-3.6604,-3.6867,-3.6871,0,0,0,0,0,0,-3.642,-3.643,-3.6541,-3.6544,-3.6454,-3.6494,-3.6499,-3.6528,-3.6554,-3.6554,-3.6518,-3.6512,-3.6572,-3.6579,-3.6587,-3.6707,-3.66,-3.6605,-3.6608,-3.6864,-3.6868,-3.6872,0,0,0,0,0,0,-3.6417,-3.6431,-3.6539,-3.6486,-3.6499,-3.65,-3.6533,-3.6531,-3.6551,-3.6558,-3.6558,-3.6538,-3.6569,-3.6579,-3.6656,-3.6708,-3.6607,-3.6612,-3.6859,-3.6865,-3.687,-3.6948,0,0,0,0,0,0,-3.6413,-3.643,-3.6468,-3.6487,-3.6502,-3.6606,-3.6536,-3.6535,-3.656,-3.6553,-3.6577,-3.6578,-3.6567,-3.6648,-3.6661,-3.6714,-3.6616,-3.6854,-3.6862,-3.6868,-3.6941,-3.6956,-3.6969,0,0,0,0,0,-3.6408,-3.6488,-3.647,-3.6484,-3.6549,-3.6609,-3.6618,-3.6604,-3.6564,-3.6603,-3.6608,-3.6577,-3.6701,-3.6657,-3.6671,-3.6726,-3.6851,-3.686,-3.6868,-3.6935,-3.6953,-3.6968,0,0,0,0,0,0,-3.6474,-3.649,-3.647,-3.6559,-3.6583,-3.6599,-3.6647,-3.6624,-3.666,-3.6652,-3.6634,-3.664,-3.6721,-3.6731,-3.6682,-3.6826,-3.677,-3.6781,-3.6816,-3.6833,-3.6847,-3.6842,-3.6621,0,0,0,0,0,-3.6499,-3.6547,-3.6558,-3.6635,-3.6648,-3.6646,-3.6672,-3.6659,-3.6684,-3.6694,-3.6705,-3.673,-3.6775,-3.6805,-3.6846,-3.6943,-3.6948,-3.6988,-3.7002,-3.7013,-3.7023,-3.7076,-3.7094,-3.69,-3.69,-3.69,0,0,-3.6551,-3.6566,-3.6596,-3.6649,-3.6666,-3.6716,-3.6655,-3.671,-3.6747,-3.6703,-3.6775,-3.6784,-3.6812,-3.6899,-3.6938,-3.691,-3.7078,-3.7024,-3.7033,-3.7037,-3.7086,-3.7104,-3.7121,-3.6905,-3.6904,-3.6904,0,0,-3.6671,-3.6687,-3.6753,-3.6772,-3.6799,-3.6797,-3.6814,-3.6834,-3.6838,-3.6911,-3.6879,-3.6923,-3.7001,-3.7022,-3.7042,-3.7173,-3.7146,-3.7187,-3.7259,-3.731,-3.7325,-3.7338,-3.7385,-3.7402,-3.7197,-3.7198,-3.7198,0,-3.6732,-3.6805,-3.679,-3.6847,-3.6872,-3.6834,-3.6901,-3.6921,-3.6961,-3.6979,-3.6947,-3.7044,-3.706,-3.7152,-3.7184,-3.7202,-3.722,-3.7183,-3.7324,-3.7337,-3.735,-3.7394,-3.7411,-3.7202,-3.7202,-3.7201,-3.7201,0,-3.6879,-3.6931,-3.6981,-3.702,-3.705,-3.7112,-3.7107,-3.714,-3.7125,-3.7127,-3.7203,-3.7221,-3.7266,-3.7287,-3.7274,-3.7378,-3.7359,-3.7327,-3.7269,-3.7373,-3.7414,-3.7431,-3.7209,-3.7207,-3.7206,-3.7205,0,0,-3.704,-3.7071,-3.709,-3.7107,-3.7136,-3.7175,-3.7237,-3.7281,-3.7309,-3.7339,-3.739,-3.7457,-3.7427,-3.7451,-3.744,-3.7485,-3.7587,-3.7447,-3.7447,-3.7472,-3.7703,-3.7727,-3.7747,-3.757,-3.7574,-3.7576,-3.7701,0,-3.716,-3.7265,-3.7254,-3.7354,-3.7402,-3.7368,-3.7422,-3.7446,-3.745,-3.7492,-3.7497,-3.7544,-3.7501,-3.7516,-3.7559,-3.7566,-3.7633,-3.7557,-3.7618,-3.762,-3.761,-3.7768,-3.7793,-3.7909,-3.7717,-3.7719,-3.7721,0,-3.7313,-3.7348,-3.7453,-3.7475,-3.7495,-3.7543,-3.7583,-3.7623,-3.765,-3.765,-3.7678,-3.7659,-3.7722,-3.7665,-3.7751,-3.77,-3.7724,-3.7732,-3.7736,-3.774,-3.7676,-3.7775,-3.7946,-3.7963,-3.7746,-3.7744,-3.7743,0,-3.7419,-3.7493,-3.7565,-3.7582,-3.7609,-3.7644,-3.7657,-3.7681,-3.7708,-3.7744,-3.7761,-3.7804,-3.7827,-3.7861,-3.7855,-3.7814,-3.7943,-3.7886,-3.7945,-3.7945,-3.7972,-3.797,-3.8149,-3.7991,-3.799,-3.799,-3.799,0,-3.7553,-3.7619,-3.7613,-3.7658,-3.7731,-3.7718,-3.7791,-3.78,-3.7822,-3.7868,-3.7843,-3.7887,-3.7877,-3.7921,-3.7918,-3.799,-3.8001,-3.8003,-3.8,-3.8004,-3.8004,-3.8019,-3.801,-3.7995,-3.7994,-3.7993,-3.7992,0,-3.7683,-3.7682,-3.7759,-3.7779,-3.7786,-3.7839,-3.7857,-3.7899,-3.7902,-3.7961,-3.7974,-3.7979,-3.803,-3.8028,-3.8086,-3.8084,-3.8172,-3.8161,-3.8163,-3.816,-3.8219,-3.8214,-3.8413,-3.8438,-3.8264,-3.8266,-3.8268,0,-3.7768,-3.7818,-3.7844,-3.7873,-3.7889,-3.7936,-3.7964,-3.7954,-3.7985,-3.802,-3.8059,-3.8107,-3.8145,-3.8229,-3.8238,-3.8283,-3.8272,-3.8339,-3.8278,-3.8281,-3.8272,-3.8269,-3.8274,-3.835,-3.8352,-3.8354,-3.8355,0,-3.7919,-3.7917,-3.7958,-3.7999,-3.8033,-3.8066,-3.8095,-3.8121,-3.8115,-3.815,-3.8202,-3.8232,-3.8292,-3.834,-3.8384,-3.8398,-3.8376,-3.8374,-3.839,-3.8394,-3.8392,-3.8393,-3.8194,-3.8369,-3.8368,-3.8367,-3.8366,-3.8365,-3.8029,-3.8072,-3.8097,-3.8144,-3.8165,-3.8194,-3.8235,-3.8243,-3.8286,-3.8333,-3.8326,-3.8384,-3.8411,-3.8466,-3.8485,-3.8531,-3.8507,-3.8531,-3.8536,-3.8542,-3.8548,-3.8386,-3.8539,-3.8539,-3.8538,-3.8538,-3.8538,0,-3.8178,-3.8193,-3.8236,-3.8278,-3.8316,-3.8292,-3.8324,-3.8357,-3.8408,-3.8435,-3.8474,-3.8534,-3.8582,-3.8595,-3.8641,-3.8676,-3.8667,-3.8688,-3.8685,-3.8689,-3.8567,-3.8548,-3.8695,-3.8695,-3.8695,-3.8695,-3.8694,-3.8694,-3.826,-3.8331,-3.8332,-3.8414,-3.8428,-3.8484,-3.8505,-3.8531,-3.8553,-3.8621,-3.866,-3.8669,-3.8691,-3.8739,-3.8782,-3.8785,-3.8803,-3.8828,-3.8827,-3.8713,-3.8697,-3.8682,-3.8664,-3.8833,-3.8833,-3.8945,-3.8946,-3.8947]},{"header":{"parameterUnit":"m.s-1","parameterCategory":1,"la1":30.2991,"la2":30.254,"lo1":-89.0895,"lo2":-89.0444,"dy":0.0017,"dx":0.0017,"nx":28,"ny":28,"refTime":"2025-04-20T03:00:00:Z","depth":0,"parameterNumber":3,"parameterNumberName":"V-component_of_WINDS"},"data":[0,0,0,0,0,0,0,0,0,0,0,0,0,0,0,0,0,0,0,0,0,0,0,0,0,0,0,0,0,0,0,0,0,0,0,0,0,0,0,0,0,0,0,0,0,0,0,0,0,0,0,0,0,0,0,0,0,0,2.7328,2.7329,0,2.7426,2.7427,2.7428,2.7442,2.7441,2.744,2.7439,2.7538,2.7541,2.7545,0,0,0,0,0,0,0,0,0,0,0,0,0,2.7151,2.7154,2.7328,2.7329,2.733,2.7426,2.7427,2.7428,2.7442,2.7441,2.744,2.7439,2.7537,2.7541,2.7545,0,0,0,0,0,0,0,0,0,0,0,0,0,2.7236,2.7155,2.7327,2.7348,2.7351,2.7426,2.7427,2.7429,2.7442,2.7441,2.7439,2.7438,2.7535,2.754,2.7545,2.7605,0,0,2.7561,2.7564,0,0,0,0,0,0,0,0,2.7231,2.7243,2.7344,2.7347,2.735,2.742,2.7401,2.7488,2.7442,2.7407,2.7439,2.7437,2.75,2.7508,2.7529,2.761,2.7614,2.7562,2.7565,2.7567,2.7569,0,0,0,0,0,0,0,2.7225,2.7239,2.7366,2.7345,2.7349,2.7353,2.7363,2.7418,2.746,2.741,2.7412,2.7423,2.7501,2.7524,2.7531,2.7616,2.7562,2.7566,2.757,2.7572,2.7753,2.7754,0,0,0,0,0,0,2.7216,2.7234,2.7363,2.7369,2.7286,2.7357,2.7369,2.7399,2.7459,2.7467,2.7424,2.7423,2.7516,2.7525,2.7535,2.7611,2.7567,2.7572,2.7575,2.7751,2.7753,2.7755,0,0,0,0,0,0,2.7212,2.7227,2.7359,2.7302,2.7319,2.7361,2.7395,2.7402,2.7425,2.747,2.7477,2.744,2.7515,2.7528,2.7588,2.7614,2.7575,2.7579,2.7749,2.7752,2.7754,2.7761,0,0,0,0,0,0,2.7207,2.7226,2.7249,2.7302,2.7322,2.7411,2.7397,2.7405,2.7434,2.7434,2.7487,2.7494,2.7515,2.758,2.7594,2.7621,2.7583,2.7747,2.775,2.7753,2.7759,2.7763,2.7767,0,0,0,0,0,2.7201,2.7246,2.725,2.7266,2.7352,2.7412,2.7424,2.7447,2.7436,2.746,2.7489,2.7492,2.7609,2.7587,2.7601,2.763,2.7745,2.7749,2.7753,2.7757,2.7762,2.7767,0,0,0,0,0,0,2.7193,2.7253,2.7258,2.7323,2.7363,2.7415,2.7445,2.7452,2.7496,2.7494,2.7521,2.7533,2.7592,2.7617,2.7591,2.7693,2.7676,2.7683,2.7674,2.768,2.7684,2.7677,2.7588,0,0,0,0,0,2.7199,2.7244,2.7294,2.7346,2.7366,2.7402,2.7429,2.7444,2.7486,2.7503,2.7537,2.7577,2.7623,2.7653,2.7697,2.7762,2.7775,2.779,2.7794,2.7798,2.7803,2.7841,2.7849,2.7767,2.7767,2.7767,0,0,2.7212,2.725,2.7277,2.7345,2.7378,2.7424,2.7416,2.7464,2.7499,2.751,2.757,2.7597,2.7643,2.7707,2.7737,2.773,2.7829,2.7802,2.7805,2.7809,2.7846,2.7854,2.786,2.777,2.7769,2.7769,0,0,2.7259,2.7292,2.734,2.7373,2.7423,2.7447,2.7459,2.7511,2.7529,2.759,2.76,2.7641,2.7719,2.7753,2.778,2.7842,2.7848,2.7856,2.7879,2.7916,2.7922,2.7928,2.7952,2.7959,2.7862,2.7862,2.7862,0,2.7268,2.7338,2.7363,2.7412,2.7442,2.7456,2.7505,2.7536,2.7598,2.7619,2.761,2.771,2.7743,2.7815,2.7831,2.7852,2.7866,2.785,2.7919,2.7926,2.7931,2.7954,2.7963,2.7862,2.7862,2.7862,2.7862,0,2.7347,2.7396,2.7428,2.7489,2.7523,2.7572,2.7605,2.7636,2.7649,2.7674,2.7736,2.7776,2.783,2.7848,2.786,2.7923,2.7918,2.7914,2.7898,2.794,2.7961,2.797,2.7863,2.7863,2.7863,2.7863,0,0,2.7391,2.7467,2.7479,2.7507,2.7565,2.7602,2.7652,2.7706,2.7733,2.7775,2.7818,2.7885,2.7883,2.7914,2.793,2.7962,2.8011,2.7955,2.7957,2.7965,2.8084,2.8087,2.8097,2.8015,2.8016,2.8018,2.8081,0,2.7445,2.7535,2.756,2.7636,2.7682,2.7697,2.774,2.778,2.7805,2.7848,2.7875,2.7923,2.7916,2.7935,2.7968,2.7998,2.8035,2.7994,2.8055,2.8057,2.8044,2.8108,2.8111,2.8168,2.8089,2.8091,2.8092,0,2.752,2.7566,2.7647,2.77,2.772,2.7759,2.7811,2.7851,2.7898,2.7914,2.795,2.7964,2.8017,2.7998,2.8072,2.8043,2.807,2.8089,2.8092,2.8099,2.8077,2.8118,2.8187,2.8196,2.8105,2.8104,2.8103,0,2.7546,2.7627,2.7687,2.771,2.7774,2.7801,2.7829,2.7873,2.7905,2.795,2.7971,2.8022,2.805,2.8089,2.8117,2.81,2.8189,2.8172,2.8204,2.8204,2.8222,2.8221,2.8298,2.8238,2.8238,2.8238,2.8238,0,2.7604,2.7653,2.7699,2.7736,2.7792,2.782,2.7875,2.7903,2.7943,2.7986,2.8001,2.8041,2.8074,2.8119,2.814,2.8199,2.8211,2.8226,2.8232,2.8225,2.8224,2.8244,2.8241,2.824,2.824,2.8239,2.8239,0,2.7642,2.7674,2.7741,2.7796,2.7811,2.785,2.7897,2.7934,2.796,2.8014,2.8028,2.807,2.8123,2.8154,2.8221,2.8235,2.8301,2.8304,2.8286,2.8288,2.8319,2.8316,2.8413,2.8427,2.8357,2.8357,2.8358,0,2.7677,2.7715,2.7775,2.7806,2.7834,2.7882,2.7915,2.7945,2.7978,2.8035,2.8065,2.8119,2.8164,2.8249,2.8285,2.8336,2.8341,2.8371,2.8349,2.8342,2.8343,2.8341,2.8346,2.8375,2.8376,2.8376,2.8377,0,2.7737,2.7752,2.7798,2.7852,2.7891,2.7934,2.7977,2.8,2.8038,2.8075,2.813,2.8165,2.8234,2.8288,2.8343,2.8372,2.8381,2.8384,2.8394,2.8389,2.8377,2.8385,2.8297,2.8381,2.8381,2.8381,2.838,2.838,2.7775,2.7811,2.7859,2.7912,2.7947,2.7988,2.8025,2.8057,2.8104,2.8163,2.8178,2.8236,2.8283,2.8358,2.8388,2.8435,2.843,2.8444,2.8448,2.8452,2.8453,2.8369,2.8444,2.8444,2.8444,2.8444,2.8444,0,2.7837,2.7869,2.7917,2.7977,2.8019,2.8025,2.8073,2.8107,2.8159,2.8202,2.8247,2.8311,2.8364,2.8405,2.846,2.8489,2.8495,2.8502,2.8501,2.8508,2.8454,2.844,2.8497,2.8497,2.8497,2.8497,2.8497,2.8497,2.7874,2.7935,2.7956,2.8035,2.8068,2.8126,2.8153,2.819,2.8225,2.8297,2.8342,2.8368,2.8411,2.8469,2.8519,2.8529,2.8549,2.8556,2.8568,2.8517,2.8511,2.8506,2.8493,2.856,2.856,2.8618,2.8619,2.8619]}]]